Location: Eimen
(51.8766°N, 9.7806°E)
Time: 11:49:18
(UTC+00:00)

SL-16 R/B - Pass Details

Date: 23 May 2024
Orbit: 985 x 1007 km, 99.7° (Epoch: 18 June)

Event Time Altitude Azimuth Distance (km) Brightness Sun altitude
Rises 01:48:23 0° 163° (SSE) 3,722 5.2 -10.4°
Reaches altitude 10° 01:50:51 10° 164° (SSE) 2,777 4.5 -10.1°
Maximum altitude 01:57:08 83° 253° (WSW) 1,022 2.6 -9.6°
Drops below altitude 10° 02:03:27 10° 342° (NNW) 2,794 5.4 -9.0°
Sets 02:05:56 0° 343° (NNW) 3,747 6.1 -8.7°
